Total_Precipitation_Accumulation
0.00 0.00 0.00 0.00 0.00 0.01 0.02 0.02 0.03 0.03 0.03 0.05 0.06 0.08 0.10 0.13 0.17 0.20 0.20 0.21 0.20 0.19 0.18 0.20 0.21 0.25 0.29 0.29 0.26 0.23 0.18 0.16 0.13 0.06 0.04 0.07 0.13 0.17 0.17 0.15 0.13 0.10 0.08
0.00 0.00 0.00 0.00 0.01 0.02 0.04 0.06 0.06 0.06 0.07 0.09 0.11 0.12 0.14 0.16 0.20 0.26 0.29 0.29 0.32 0.31 0.27 0.25 0.26 0.28 0.32 0.34 0.35 0.33 0.28 0.22 0.17 0.10 0.05 0.06 0.12 0.18 0.21 0.21 0.18 0.13 0.09
0.00 0.00 0.00 0.00 0.01 0.03 0.06 0.10 0.15 0.19 0.21 0.23 0.24 0.26 0.28 0.29 0.33 0.37 0.41 0.48 0.52 0.50 0.47 0.45 0.40 0.39 0.40 0.38 0.39 0.38 0.34 0.28 0.22 0.17 0.11 0.09 0.13 0.19 0.24 0.25 0.23 0.18 0.14
0.00 0.00 0.00 0.01 0.04 0.06 0.09 0.15 0.24 0.34 0.41 0.45 0.49 0.49 0.49 0.49 0.57 0.65 0.68 0.67 0.65 0.65 0.65 0.66 0.65 0.59 0.54 0.49 0.45 0.40 0.38 0.35 0.29 0.23 0.18 0.15 0.17 0.20 0.28 0.29 0.27 0.21 0.17
0.01 0.01 0.02 0.05 0.10 0.17 0.20 0.23 0.31 0.39 0.47 0.51 0.52 0.52 0.51 0.58 0.77 0.91 0.88 0.66 0.58 0.59 0.61 0.65 0.71 0.76 0.73 0.67 0.62 0.50 0.40 0.39 0.38 0.33 0.26 0.21 0.19 0.23 0.30 0.33 0.35 0.28 0.21
0.02 0.03 0.06 0.11 0.18 0.25 0.29 0.32 0.39 0.44 0.47 0.46 0.46 0.46 0.44 0.49 0.75 0.86 0.69 0.43 0.38 0.43 0.49 0.50 0.53 0.62 0.63 0.65 0.68 0.60 0.54 0.49 0.47 0.45 0.40 0.34 0.29 0.28 0.34 0.41 0.43 0.39 0.30
0.04 0.06 0.10 0.13 0.17 0.20 0.23 0.27 0.32 0.30 0.26 0.28 0.33 0.32 0.31 0.36 0.58 0.67 0.44 0.18 0.16 0.22 0.30 0.35 0.37 0.44 0.46 0.46 0.47 0.43 0.48 0.54 0.58 0.58 0.58 0.54 0.44 0.38 0.39 0.42 0.46 0.42 0.35
0.04 0.07 0.10 0.12 0.16 0.14 0.13 0.16 0.19 0.16 0.15 0.18 0.19 0.15 0.13 0.18 0.40 0.51 0.30 0.07 0.08 0.14 0.22 0.28 0.27 0.31 0.34 0.34 0.36 0.35 0.38 0.49 0.62 0.66 0.70 0.67 0.57 0.51 0.51 0.56 0.59 0.54 0.49
0.04 0.05 0.07 0.10 0.14 0.11 0.09 0.10 0.12 0.12 0.11 0.10 0.09 0.06 0.03 0.07 0.28 0.49 0.29 0.04 0.05 0.09 0.17 0.25 0.22 0.17 0.23 0.17 0.23 0.30 0.30 0.38 0.46 0.56 0.57 0.55 0.53 0.58 0.63 0.67 0.75 0.76 0.77
0.02 0.03 0.03 0.04 0.06 0.04 0.03 0.02 0.03 0.04 0.05 0.04 0.02 0.01 0.01 0.02 0.15 0.46 0.39 0.06 0.05 0.07 0.10 0.17 0.24 0.17 0.15 0.10 0.13 0.20 0.23 0.28 0.28 0.29 0.31 0.33 0.37 0.45 0.57 0.70 0.80 0.85 0.87
0.00 0.00 0.00 0.00 0.00 0.00 0.00 0.00 0.01 0.01 0.01 0.01 0.01 0.00 0.00 0.01 0.04 0.28 0.49 0.23 0.08 0.06 0.09 0.16 0.19 0.13 0.09 0.07 0.07 0.12 0.19 0.15 0.15 0.18 0.20 0.24 0.31 0.39 0.51 0.63 0.75 0.81 0.83
0.00 0.00 0.00 0.00 0.00 0.00 0.00 0.00 0.00 0.01 0.01 0.01 0.01 0.01 0.01 0.01 0.03 0.13 0.28 0.37 0.21 0.08 0.11 0.11 0.11 0.07 0.05 0.03 0.03 0.04 0.04 0.04 0.06 0.08 0.11 0.16 0.25 0.35 0.46 0.55 0.65 0.75 0.83
0.00 0.00 0.00 0.00 0.00 0.00 0.01 0.01 0.01 0.01 0.03 0.04 0.03 0.02 0.01 0.01 0.03 0.08 0.09 0.13 0.18 0.13 0.21 0.19 0.05 0.01 0.00 0.00 0.01 0.00 0.00 0.01 0.03 0.05 0.08 0.13 0.19 0.27 0.32 0.39 0.47 0.55 0.63
0.00 0.00 0.00 0.00 0.00 0.00 0.00 0.01 0.02 0.04 0.13 0.14 0.08 0.05 0.03 0.03 0.07 0.12 0.06 0.05 0.06 0.08 0.12 0.12 0.03 0.00 0.00 0.00 0.00 0.00 0.00 0.01 0.01 0.03 0.05 0.07 0.11 0.15 0.20 0.27 0.34 0.41 0.47
0.00 0.00 0.00 0.00 0.00 0.01 0.00 0.01 0.03 0.05 0.19 0.24 0.15 0.12 0.11 0.12 0.18 0.20 0.15 0.15 0.15 0.11 0.05 0.03 0.01 0.00 0.00 0.00 0.00 0.00 0.00 0.00 0.00 0.01 0.02 0.03 0.06 0.09 0.14 0.19 0.25 0.30 0.36
0.00 0.00 0.01 0.01 0.01 0.01 0.01 0.01 0.01 0.03 0.08 0.09 0.09 0.13 0.14 0.19 0.18 0.12 0.11 0.15 0.14 0.11 0.03 0.01 0.01 0.00 0.00 0.00 0.00 0.00 0.00 0.00 0.00 0.00 0.01 0.01 0.03 0.06 0.09 0.13 0.18 0.22 0.27
0.01 0.01 0.02 0.02 0.01 0.01 0.01 0.02 0.02 0.01 0.01 0.02 0.03 0.05 0.11 0.15 0.11 0.07 0.09 0.09 0.08 0.04 0.01 0.00 0.00 0.00 0.00 0.00 0.00 0.00 0.00 0.00 0.00 0.00 0.00 0.01 0.01 0.03 0.05 0.08 0.11 0.15 0.19
0.01 0.01 0.02 0.02 0.02 0.03 0.03 0.03 0.03 0.03 0.02 0.00 0.00 0.01 0.04 0.08 0.06 0.04 0.06 0.05 0.02 0.01 0.01 0.00 0.00 0.00 0.00 0.00 0.00 0.00 0.00 0.00 0.00 0.00 0.00 0.00 0.00 0.01 0.02 0.04 0.06 0.09 0.13
0.01 0.02 0.04 0.03 0.03 0.03 0.03 0.03 0.03 0.02 0.02 0.01 0.00 0.00 0.01 0.02 0.01 0.01 0.01 0.01 0.00 0.00 0.00 0.00 0.00 0.00 0.00 0.00 0.00 0.00 0.00 0.00 0.00 0.00 0.00 0.00 0.00 0.00 0.01 0.02 0.03 0.04 0.06
0.00 0.01 0.03 0.03 0.03 0.03 0.03 0.03 0.03 0.03 0.03 0.02 0.01 0.01 0.02 0.02 0.01 0.00 0.00 0.00 0.00 0.00 0.00 0.00 0.00 0.00 0.00 0.00 0.00 0.00 0.00 0.00 0.00 0.00 0.00 0.00 0.00 0.00 0.00 0.01 0.01 0.02 0.03
0.01 0.01 0.02 0.02 0.02 0.03 0.04 0.04 0.04 0.04 0.04 0.03 0.01 0.02 0.10 0.07 0.02 0.00 0.00 0.00 0.00 0.00 0.00 0.00 0.00 0.00 0.00 0.00 0.00 0.00 0.00 0.00 0.00 0.00 0.00 0.00 0.00 0.00 0.00 0.00 0.00 0.01 0.01
0.02 0.03 0.03 0.04 0.04 0.04 0.05 0.04 0.04 0.05 0.04 0.03 0.02 0.01 0.04 0.02 0.01 0.01 0.01 0.01 0.01 0.01 0.01 0.00 0.00 0.00 0.00 0.00 0.00 0.00 0.00 0.00 0.00 0.00 0.00 0.00 0.00 0.00 0.00 0.00 0.00 0.00 0.01
0.05 0.05 0.03 0.02 0.02 0.02 0.02 0.02 0.03 0.04 0.04 0.03 0.03 0.02 0.02 0.02 0.02 0.03 0.03 0.03 0.02 0.02 0.02 0.01 0.01 0.00 0.00 0.00 0.00 0.00 0.00 0.00 0.00 0.00 0.00 0.00 0.00 0.00 0.00 0.00 0.00 0.01 0.01
0.05 0.03 0.02 0.02 0.01 0.02 0.02 0.03 0.03 0.05 0.05 0.04 0.04 0.03 0.03 0.03 0.03 0.03 0.03 0.03 0.03 0.03 0.03 0.03 0.02 0.01 0.01 0.00 0.00 0.00 0.00 0.00 0.00 0.01 0.01 0.01 0.01 0.01 0.01 0.02 0.02 0.01 0.01
0.01 0.01 0.02 0.02 0.03 0.03 0.03 0.03 0.04 0.05 0.06 0.06 0.06 0.05 0.04 0.04 0.04 0.03 0.03 0.04 0.05 0.05 0.05 0.05 0.04 0.03 0.01 0.01 0.00 0.00 0.00 0.01 0.04 0.10 0.16 0.19 0.15 0.10 0.07 0.06 0.04 0.03 0.03
0.01 0.02 0.03 0.04 0.04 0.04 0.06 0.07 0.07 0.08 0.09 0.08 0.07 0.07 0.06 0.06 0.05 0.05 0.06 0.07 0.08 0.08 0.07 0.07 0.06 0.05 0.04 0.03 0.01 0.01 0.02 0.06 0.17 0.30 0.38 0.35 0.23 0.13 0.08 0.07 0.05 0.05 0.05